| time (UTC) | temp F | wind direction | speed MPH | gust MPH | rain 1hr in | rain 24hr in | rain mn in | humidity % | barometer mb |
| 20260504201547 | 63 | 36 | 7.0 | 17.0 | 0.00 | 0.00 | 0.00 | 26 | 1000.7 |
| 20260504200052 | 65 | 5 | 10.0 | 18.0 | 0.00 | 0.00 | 0.00 | 25 | 1000.7 |
| 20260504194539 | 66 | 313 | 0.0 | 8.0 | 0.00 | 0.00 | 0.00 | 22 | 1000.7 |
| 20260504193043 | 68 | 306 | 0.0 | 0.0 | 0.00 | 0.00 | 0.00 | 22 | 1000.8 |
| 20260504191538 | 68 | 55 | 0.0 | 5.0 | 0.00 | 0.00 | 0.00 | 24 | 1000.8 |
| 20260504190036 | 65 | 344 | 0.0 | 5.0 | 0.00 | 0.00 | 0.00 | 25 | 1001.3 |
| 20260504184537 | 68 | 269 | 0.0 | 3.0 | 0.00 | 0.00 | 0.00 | 21 | 1001.1 |
| 20260504183035 | 69 | 355 | 0.0 | 1.0 | 0.00 | 0.00 | 0.00 | 21 | 1001.2 |
| 20260504181527 | 69 | 314 | 0.0 | 1.0 | 0.00 | 0.00 | 0.00 | 22 | 1001.5 |
| 20260504180026 | 68 | 266 | 0.0 | 0.0 | 0.00 | 0.00 | 0.00 | 23 | 1001.7 |
| 20260504174522 | 68 | 350 | 0.0 | 0.0 | 0.00 | 0.00 | 0.00 | 25 | 1001.7 |
| 20260504173021 | 69 | 312 | 0.0 | 0.0 | 0.00 | 0.00 | 0.00 | 26 | 1001.9 |
| 20260504171516 | 67 | 46 | 0.0 | 0.0 | 0.00 | 0.00 | 0.00 | 28 | 1002.0 |
| 20260504160106 | 60 | 140 | 0.0 | 0.0 | 0.00 | 0.00 | 0.00 | 35 | 1002.7 |
| 20260504120130 | 36 | 48 | 0.0 | 0.0 | 0.00 | 0.00 | 0.00 | 67 | 1003.7 |
| 20260504081528 | 42 | 48 | 0.0 | 0.0 | 0.00 | 0.00 | 0.00 | 58 | 1004.0 |
| 20260504044559 | 52 | 135 | 6.0 | 17.0 | 0.00 | 0.00 | 0.00 | 41 | 1004.6 |
| 20260504043113 | 53 | 92 | 4.0 | 18.0 | 0.00 | 0.00 | 0.00 | 40 | 1004.5 |
| 20260504041556 | 53 | 111 | 4.0 | 15.0 | 0.00 | 0.00 | 0.00 | 39 | 1004.6 |
| 20260504040053 | 54 | 160 | 4.0 | 15.0 | 0.00 | 0.00 | 0.00 | 39 | 1004.6 |
| 20260504034555 | 54 | 91 | 4.0 | 15.0 | 0.00 | 0.00 | 0.00 | 38 | 1004.6 |
| 20260504033102 | 55 | 115 | 2.0 | 13.0 | 0.00 | 0.00 | 0.00 | 38 | 1004.5 |
| 20260504031556 | 55 | 98 | 0.0 | 6.0 | 0.00 | 0.00 | 0.00 | 37 | 1004.5 |
| 20260504024549 | 57 | 162 | 0.0 | 0.0 | 0.00 | 0.00 | 0.00 | 35 | 1004.5 |
| 20260504023049 | 58 | 164 | 0.0 | 0.0 | 0.00 | 0.00 | 0.00 | 34 | 1004.4 |
| 20260504021550 | 59 | 194 | 0.0 | 0.0 | 0.00 | 0.00 | 0.00 | 33 | 1004.4 |
| 20260504020025 | 60 | 183 | 0.0 | 5.0 | 0.00 | 0.00 | 0.00 | 33 | 1004.4 |
| 20260504014517 | 61 | 221 | 0.0 | 0.0 | 0.00 | 0.00 | 0.00 | 32 | 1004.4 |
| 20260504013019 | 61 | 240 | 0.0 | 0.0 | 0.00 | 0.00 | 0.00 | 31 | 1004.4 |
| 20260504011513 | 63 | 270 | 0.0 | 0.0 | 0.00 | 0.00 | 0.00 | 28 | 1004.5 |
| 20260504010013 | 65 | 261 | 0.0 | 3.0 | 0.00 | 0.00 | 0.00 | 25 | 1004.5 |
| 20260504004531 | 66 | 303 | 0.0 | 3.0 | 0.00 | 0.00 | 0.00 | 23 | 1004.5 |
| 20260504003010 | 67 | 284 | 5.0 | 10.0 | 0.00 | 0.00 | 0.00 | 22 | 1004.5 |
| 20260504001526 | 69 | 288 | 0.0 | 6.0 | 0.00 | 0.00 | 0.00 | 20 | 1004.5 |
| 20260504000008 | 68 | 360 | 0.0 | 0.0 | 0.00 | 0.00 | 0.00 | 21 | 1004.6 |
| 20260503234513 | 67 | 5 | 0.0 | 3.0 | 0.00 | 0.00 | 0.00 | 21 | 1004.7 |
| 20260503233007 | 66 | 23 | 0.0 | 0.0 | 0.00 | 0.00 | 0.00 | 24 | 1004.9 |
| 20260503231504 | 68 | 281 | 0.0 | 9.0 | 0.00 | 0.00 | 0.00 | 21 | 1005.0 |
| 20260503230005 | 68 | 25 | 6.0 | 15.0 | 0.00 | 0.00 | 0.00 | 21 | 1004.9 |
| 20260503230003 | 68 | 51 | 6.0 | 15.0 | 0.00 | 0.00 | 0.00 | 21 | 1004.9 |
| 20260503224501 | 68 | 34 | 0.0 | 0.0 | 0.00 | 0.00 | 0.00 | 22 | 1005.3 |
| 20260503223007 | 70 | 274 | 0.0 | 9.0 | 0.00 | 0.00 | 0.00 | 19 | 1005.2 |
| 20260503221558 | 71 | 5 | 1.0 | 9.0 | 0.00 | 0.00 | 0.00 | 20 | 1005.2 |
| 20260503220057 | 70 | 268 | 0.0 | 6.0 | 0.00 | 0.00 | 0.00 | 17 | 1005.4 |
| 20260503214557 | 68 | 297 | 0.0 | 1.0 | 0.00 | 0.00 | 0.00 | 19 | 1005.7 |
| 20260503213052 | 69 | 304 | 0.0 | 6.0 | 0.00 | 0.00 | 0.00 | 18 | 1006.0 |
| 20260503211521 | 68 | 355 | 0.0 | 13.0 | 0.00 | 0.00 | 0.00 | 19 | 1006.2 |
| 20260503210019 | 68 | 266 | 0.0 | 12.0 | 0.00 | 0.00 | 0.00 | 21 | 1006.4 |
| 20260503204548 | 67 | 266 | 0.0 | 9.0 | 0.00 | 0.00 | 0.00 | 19 | 1006.5 |
| 20260503203047 | 68 | 350 | 1.0 | 8.0 | 0.00 | 0.00 | 0.00 | 18 | 1006.6 |